This is the latest recevied weather packets stored in our database for station/object K1BES. If no packets are shown the sender has not sent any weather packets the latest 10 day(s).
| Time | Temp. | Humidity | Pressure | Rain* | Wind** | Luminosity | Snow |
|---|---|---|---|---|---|---|---|
| 1787861830 | 30.56° C | 68% | 1018.6 hPa | 0 mm | - | 250 W/m² | - |
| 1787861528 | 30.56° C | 69% | 1018.5 hPa | 0 mm | - | 243 W/m² | - |
| 1787861223 | 30.56° C | 69% | 1018.6 hPa | 0 mm | - | 253 W/m² | - |
| 1787860922 | 31.11° C | 67% | 1018.5 hPa | 0 mm | - | 270 W/m² | - |
| 1787860617 | 31.11° C | 68% | 1018.7 hPa | 0 mm | - | 265 W/m² | - |
| 1787860312 | 31.67° C | 69% | 1018.3 hPa | 0 mm | - | 305 W/m² | - |
| 1787860007 | 32.78° C | 69% | 1018.6 hPa | 0 mm | - | 299 W/m² | - |
| 1787859703 | 32.78° C | 67% | 1018.4 hPa | 0 mm | - | 612 W/m² | - |
| 1787859403 | 32.78° C | 68% | 1018.3 hPa | 0 mm | - | 597 W/m² | - |
| 1787859098 | 32.22° C | 69% | 1018.1 hPa | 0 mm | - | 1022 W/m² | - |
| 1787858795 | 32.22° C | 68% | 1018.4 hPa | 0 mm | - | 874 W/m² | - |
| 1787858490 | 32.22° C | 67% | 1018.3 hPa | 0 mm | - | 901 W/m² | - |
| 1787858189 | 31.67° C | 69% | 1018.5 hPa | 0 mm | - | 805 W/m² | - |
| 1787857885 | 31.67° C | 70% | 1018.5 hPa | 0 mm | - | 850 W/m² | - |
| 1787857582 | 31.67° C | 70% | 1018.5 hPa | 0 mm | - | 690 W/m² | - |
| 1787857281 | 31.11° C | 71% | 1018.4 hPa | 0 mm | - | 615 W/m² | - |
| 1787856980 | 30.56° C | 73% | 1018.4 hPa | 0 mm | - | 607 W/m² | - |
| 1787856674 | 30° C | 73% | 1018.5 hPa | 0 mm | - | 461 W/m² | - |
| 1787856374 | 30° C | 73% | 1018.2 hPa | 0 mm | - | 402 W/m² | - |
| 1787856070 | 30° C | 74% | 1018.4 hPa | 0 mm | - | 361 W/m² | - |
| 1787855770 | 29.44° C | 73% | 1018.7 hPa | 0 mm | - | 328 W/m² | - |
| 1787855465 | 29.44° C | 74% | 1018.5 hPa | 0 mm | - | 295 W/m² | - |
| 1787855161 | 28.89° C | 75% | 1018.2 hPa | 0 mm | - | 281 W/m² | - |
| 1787854856 | 28.89° C | 76% | 1018.6 hPa | 0 mm | - | 263 W/m² | - |
| 1787854555 | 28.89° C | 76% | 1018.5 hPa | 0 mm | - | 241 W/m² | - |
* Rain latest hour (hover to see other rain measurements)
** Current wind speed in m/s (hover to see current wind gust speed)